GW6917 Weather Reports


time (UTC)temp
C
wind
direction
speed
KPH
gust
KPH
rain 1hr
cm
rain 24hr
cm
rain mn
cm
humidity
%
barometer
mb
20260502233534 10 20 1.6 8.0 0.00 0.00 0.00 86 1013.2
20260502233046 10 18 3.2 8.0 0.00 0.00 0.00 86 1013.2
20260502232534 10 32 3.2 6.4 0.00 0.00 0.00 86 1013.1
20260502232034 10 23 1.6 4.8 0.00 0.00 0.00 86 1013.3
20260502231544 10 46 0.0 3.2 0.00 0.00 0.00 86 1013.4
20260502231035 10 53 1.6 3.2 0.00 0.00 0.00 86 1013.5
20260502230535 10 46 0.0 3.2 0.00 0.00 0.00 86 1013.5
20260502230052 10 0 1.6 3.2 0.00 0.00 0.00 86 1013.5
20260502225536 10 117 0.0 3.2 0.00 0.00 0.00 86 1013.5
20260502225033 10 89 0.0 3.2 0.00 0.00 0.00 86 1013.6
20260502224545 10 89 0.0 3.2 0.00 0.00 0.00 86 1013.6
20260502224034 10 0 0.0 3.2 0.00 0.00 0.00 86 1013.6
20260502223534 10 0 0.0 3.2 0.00 0.00 0.00 85 1013.6
20260502223100 10 0 0.0 3.2 0.00 0.00 0.00 85 1013.6
20260502222535 10 0 0.0 3.2 0.00 0.00 0.00 85 1013.7
20260502222034 10 152 0.0 3.2 0.00 0.00 0.00 84 1013.7
20260502221548 10 0 0.0 1.6 0.00 0.00 0.00 84 1013.7
20260502221033 10 0 0.0 1.6 0.00 0.00 0.00 83 1013.8
20260502220534 10 0 0.0 1.6 0.00 0.00 0.00 83 1013.7
20260502220101 10 117 0.0 3.2 0.00 0.00 0.00 83 1013.8
20260502215534 10 0 0.0 3.2 0.00 0.00 0.00 83 1013.9
20260502215033 10 105 0.0 3.2 0.00 0.00 0.00 83 1013.8
20260502214608 11 152 1.6 3.2 0.00 0.00 0.00 82 1013.9
20260502214034 11 89 0.0 3.2 0.00 0.00 0.00 82 1013.9
20260502213536 11 89 0.0 3.2 0.00 0.00 0.00 82 1014.1
20260502213105 11 108 0.0 1.6 0.00 0.00 0.00 82 1014.0
20260502212534 11 124 0.0 3.2 0.00 0.00 0.00 82 1014.1
20260502212036 11 89 0.0 3.2 0.00 0.00 0.00 82 1014.1
20260502211553 11 89 0.0 3.2 0.00 0.00 0.00 82 1014.0
20260502211033 11 124 1.6 3.2 0.00 0.00 0.00 82 1014.2
20260502210534 11 108 0.0 3.2 0.00 0.00 0.00 81 1014.1
20260502210049 11 117 1.6 3.2 0.00 0.00 0.00 81 1014.2
20260502205533 11 135 1.6 3.2 0.00 0.00 0.00 81 1014.2
20260502205037 11 0 0.0 4.8 0.00 0.00 0.00 80 1014.2
20260502204549 11 28 1.6 4.8 0.00 0.00 0.00 81 1014.2
20260502204034 11 46 1.6 3.2 0.00 0.00 0.00 81 1014.2
20260502203533 11 28 1.6 3.2 0.00 0.00 0.00 81 1014.2
20260502203110 11 314 1.6 3.2 0.00 0.00 0.00 81 1014.3
20260502202535 11 1 0.0 3.2 0.00 0.00 0.00 81 1014.2
20260502202037 11 35 0.0 3.2 0.00 0.00 0.00 80 1014.3
20260502201549 11 46 1.6 3.2 0.00 0.00 0.00 80 1014.3
20260502201034 11 76 0.0 3.2 0.00 0.00 0.00 80 1014.3
20260502200535 11 72 0.0 4.8 0.00 0.00 0.00 79 1014.3
20260502200055 11 35 1.6 4.8 0.00 0.00 0.00 79 1014.4
20260502195533 11 23 1.6 3.2 0.00 0.00 0.00 79 1014.3
20260502195034 11 1 0.0 3.2 0.00 0.00 0.00 78 1014.4
20260502194550 11 0 0.0 4.8 0.00 0.00 0.00 78 1014.3
20260502194033 11 46 1.6 4.8 0.00 0.00 0.00 78 1014.3
20260502193535 11 331 1.6 4.8 0.00 0.00 0.00 78 1014.3
20260502193046 11 314 1.6 6.4 0.00 0.00 0.00 78 1014.2
20260502192533 12 0 1.6 6.4 0.00 0.00 0.00 78 1014.3
20260502192033 12 338 1.6 8.0 0.00 0.00 0.00 77 1014.3
20260502191549 12 324 1.6 11.3 0.00 0.00 0.00 77 1014.3
20260502191034 12 301 3.2 11.3 0.00 0.00 0.00 77 1014.2
20260502190536 12 296 3.2 11.3 0.00 0.00 0.00 78 1014.2
20260502190050 12 21 3.2 11.3 0.00 0.00 0.00 79 1014.1
20260502185534 12 336 4.8 11.3 0.00 0.00 0.00 79 1014.1
20260502185039 12 344 4.8 11.3 0.00 0.00 0.00 78 1014.2
20260502184545 12 353 4.8 11.3 0.00 0.00 0.00 78 1014.1
20260502184035 12 28 4.8 12.9 0.00 0.00 0.00 78 1014.1
20260502183534 12 321 4.8 12.9 0.00 0.00 0.00 78 1014.1
20260502183048 13 300 6.4 12.9 0.00 0.00 0.00 77 1014.1
20260502182534 13 8 6.4 12.9 0.00 0.00 0.00 76 1014.1
20260502182033 13 320 4.8 11.3 0.00 0.00 0.00 76 1014.0
20260502181549 13 353 6.4 11.3 0.00 0.00 0.00 76 1014.0
20260502181033 13 331 3.2 9.7 0.00 0.00 0.00 75 1013.9
20260502180534 14 25 3.2 12.9 0.00 0.00 0.00 75 1013.9
20260502164033 15 286 6.4 12.9 0.00 0.13 0.00 71 1014.2
20260502163534 15 347 4.8 12.9 0.00 0.13 0.00 72 1014.2
20260502163109 15 279 6.4 16.1 0.00 0.13 0.00 71 1014.2
20260502162535 15 56 4.8 16.1 0.00 0.13 0.00 71 1014.2
20260502162033 15 280 4.8 14.5 0.00 0.13 0.00 71 1014.3
20260502161604 15 283 6.4 14.5 0.00 0.13 0.00 70 1014.3
20260502161033 15 314 6.4 14.5 0.00 0.13 0.00 70 1014.4
20260502160534 15 269 6.4 14.5 0.00 0.13 0.00 71 1014.4
20260502152034 14 284 9.7 17.7 0.00 0.15 0.00 76 1014.9
20260502151549 14 350 6.4 17.7 0.00 0.15 0.00 76 1014.9
20260502151034 14 278 8.0 17.7 0.00 0.15 0.00 75 1015.0
20260502150534 14 284 8.0 17.7 0.00 0.15 0.00 74 1015.1
20260502130533 14 257 8.0 17.7 0.00 0.15 0.00 75 1015.9
20260502123533 13 18 6.4 19.3 0.00 0.15 0.00 78 1016.1
20260502123108 13 314 6.4 19.3 0.00 0.15 0.00 77 1016.0
20260502122534 13 1 9.7 19.3 0.00 0.15 0.00 78 1016.2
20260502122036 13 318 8.0 17.7 0.00 0.15 0.00 78 1016.2
20260502121545 13 255 8.0 16.1 0.00 0.15 0.00 78 1016.2
20260502121034 13 317 3.2 16.1 0.00 0.15 0.00 79 1016.2
20260502120533 13 292 6.4 16.1 0.00 0.15 0.00 79 1016.2
20260502120107 13 27 9.7 19.3 0.00 0.15 0.00 79 1016.1
20260502115533 13 322 8.0 19.3 0.00 0.15 0.00 79 1016.3
20260502115033 13 302 9.7 19.3 0.00 0.15 0.00 79 1016.3
20260502114548 13 293 9.7 19.3 0.00 0.15 0.00 80 1016.2
20260502114035 13 338 8.0 19.3 0.00 0.15 0.00 80 1016.2
20260502113535 13 315 6.4 19.3 0.00 0.15 0.00 80 1016.3
20260502113050 13 272 9.7 24.1 0.00 0.15 0.00 81 1016.2
20260502112532 12 279 9.7 24.1 0.00 0.15 0.00 81 1016.3
20260502112035 13 294 9.7 22.5 0.00 0.15 0.00 81 1016.5
20260502111547 12 286 11.3 22.5 0.00 0.15 0.00 83 1016.5
20260502111034 12 304 9.7 22.5 0.00 0.15 0.00 84 1016.3
20260502110534 12 297 8.0 17.7 0.00 0.15 0.00 84 1016.3
20260502110052 12 295 8.0 20.9 0.00 0.15 0.00 85 1016.4
20260502105534 12 347 8.0 20.9 0.00 0.15 0.00 85 1016.5
20260502105033 12 337 9.7 20.9 0.00 0.15 0.00 85 1016.4
20260502104544 12 336 9.7 19.3 0.00 0.15 0.00 85 1016.4
20260502104033 12 290 9.7 19.3 0.00 0.15 0.00 86 1016.4
20260502103533 11 276 11.3 19.3 0.00 0.15 0.00 86 1016.5
20260502103045 12 301 6.4 16.1 0.00 0.15 0.00 87 1016.4
20260502102533 11 284 4.8 16.1 0.00 0.15 0.00 87 1016.5
20260502102033 11 284 8.0 19.3 0.00 0.15 0.00 87 1016.4
20260502101548 12 339 8.0 19.3 0.00 0.15 0.00 87 1016.4
20260502101033 12 307 8.0 16.1 0.00 0.15 0.00 87 1016.4
20260502100533 12 290 6.4 17.7 0.00 0.15 0.00 88 1016.4
20260502091034 11 0 0.0 3.2 0.00 0.15 0.00 94 1016.5
20260502090534 11 223 0.0 3.2 0.00 0.15 0.00 94 1016.4
20260502080108 10 231 1.6 4.8 0.00 0.15 0.00 94 1016.7
20260502071033 8 0 0.0 3.2 0.00 0.15 0.00 94 1016.5
20260502070533 8 0 0.0 3.2 0.00 0.15 0.00 94 1016.4
20260502070106 8 46 0.0 3.2 0.00 0.15 0.00 94 1016.4
20260502065532 8 314 0.0 3.2 0.00 0.15 0.00 94 1016.5
20260502065033 8 0 0.0 3.2 0.00 0.15 0.00 94 1016.5
20260502064552 8 46 1.6 3.2 0.00 0.15 0.00 94 1016.4
20260502064036 8 39 1.6 3.2 0.00 0.15 0.00 94 1016.4
20260502063534 8 51 0.0 3.2 0.00 0.15 0.00 94 1016.5
20260502063045 8 89 0.0 3.2 0.00 0.15 0.00 94 1016.4
20260502062535 8 46 0.0 3.2 0.00 0.15 0.00 94 1016.5
20260502062035 8 15 0.0 3.2 0.00 0.15 0.00 94 1016.5
20260502061541 8 0 0.0 3.2 0.00 0.15 0.00 94 1016.5
20260502061037 7 0 0.0 3.2 0.00 0.15 0.00 94 1016.4
20260502060533 7 89 0.0 3.2 0.00 0.15 0.00 94 1016.5
20260502060052 7 89 0.0 3.2 0.00 0.15 0.00 94 1016.5
20260502055535 7 98 1.6 3.2 0.00 0.15 0.00 94 1016.5
20260502055035 7 46 1.6 3.2 0.00 0.15 0.00 94 1016.4
20260502054548 7 39 1.6 3.2 0.00 0.15 0.00 93 1016.4
20260502054033 7 124 0.0 3.2 0.00 0.15 0.00 93 1016.4
20260502053533 7 46 1.6 3.2 0.00 0.15 0.00 93 1016.3
20260502053045 7 72 1.6 3.2 0.00 0.15 0.00 93 1016.4
20260502052533 7 0 0.0 3.2 0.00 0.15 0.00 93 1016.4
20260502052037 7 135 0.0 4.8 0.00 0.15 0.00 93 1016.3
20260502051558 7 46 0.0 4.8 0.00 0.15 0.00 94 1016.4
20260502051034 7 0 0.0 3.2 0.00 0.15 0.00 93 1016.3
20260502050533 7 0 0.0 3.2 0.00 0.15 0.00 93 1016.4
20260502050047 7 0 0.0 3.2 0.00 0.15 0.00 93 1016.2
20260502045536 7 165 0.0 3.2 0.00 0.15 0.00 93 1016.4
20260502045035 7 0 0.0 3.2 0.00 0.15 0.00 93 1016.4
20260502044547 7 39 0.0 3.2 0.00 0.15 0.00 93 1016.4
20260502044033 7 0 0.0 3.2 0.00 0.15 0.00 93 1016.2
20260502043533 7 140 0.0 3.2 0.00 0.15 0.00 93 1016.2
20260502043048 7 124 1.6 3.2 0.00 0.15 0.00 93 1016.3
20260502042533 7 0 0.0 3.2 0.00 0.15 0.00 93 1016.3
20260502042035 6 108 0.0 3.2 0.00 0.15 0.00 93 1016.3
20260502041547 6 89 0.0 3.2 0.00 0.15 0.00 93 1016.4
20260502041033 6 0 0.0 1.6 0.00 0.15 0.00 93 1016.4
20260502040533 6 0 0.0 1.6 0.00 0.15 0.00 93 1016.5
20260502040045 6 0 0.0 4.8 0.00 0.15 0.00 93 1016.5
20260502035535 6 1 0.0 4.8 0.00 0.15 0.00 93 1016.6
20260502035034 6 203 0.0 1.6 0.00 0.15 0.00 92 1016.4
20260502034542 6 0 0.0 1.6 0.00 0.15 0.00 93 1016.5
20260502034036 6 0 0.0 3.2 0.00 0.15 0.00 92 1016.6
20260502033534 6 0 0.0 3.2 0.00 0.15 0.00 92 1016.5
20260502033051 6 46 0.0 1.6 0.00 0.15 0.00 92 1016.5
20260502032533 6 0 0.0 3.2 0.00 0.15 0.00 92 1016.6
20260502032033 6 0 0.0 3.2 0.00 0.15 0.00 92 1016.5
20260502031544 6 23 0.0 3.2 0.00 0.15 0.00 92 1016.6
20260502031036 6 0 0.0 3.2 0.00 0.15 0.00 92 1016.6
20260502030534 6 0 0.0 3.2 0.00 0.15 0.00 92 1016.6
20260502030045 6 0 0.0 3.2 0.00 0.15 0.00 92 1016.7
20260502025533 6 201 1.6 3.2 0.00 0.15 0.00 92 1016.8
20260502025035 6 0 0.0 3.2 0.00 0.15 0.00 92 1016.9
20260502024548 6 105 0.0 3.2 0.00 0.15 0.00 92 1016.8
20260502024036 6 0 0.0 3.2 0.00 0.15 0.00 92 1016.7
20260502023533 6 124 0.0 3.2 0.00 0.15 0.00 92 1016.8
20260502023045 6 89 0.0 4.8 0.00 0.15 0.00 92 1017.0
20260502022534 6 89 0.0 4.8 0.00 0.15 0.00 92 1017.1
20260502022035 7 122 1.6 4.8 0.00 0.15 0.00 92 1017.2
20260502021542 7 152 1.6 4.8 0.00 0.15 0.00 92 1017.3
20260502021035 7 100 1.6 4.8 0.00 0.15 0.00 92 1017.2
20260502020534 7 56 1.6 4.8 0.00 0.15 0.00 92 1017.3
20260502020041 7 145 1.6 3.2 0.00 0.15 0.00 91 1017.3
20260502015534 7 124 0.0 3.2 0.00 0.15 0.00 91 1017.3
20260502015037 7 0 1.6 3.2 0.00 0.15 0.00 91 1017.5
20260502014547 7 0 1.6 6.4 0.00 0.15 0.00 92 1017.5
20260502014035 7 152 3.2 6.4 0.00 0.15 0.00 91 1017.5
20260502013534 7 0 0.0 3.2 0.00 0.15 0.00 91 1017.5
20260502013048 7 0 0.0 3.2 0.00 0.15 0.00 91 1017.7
20260502012535 7 89 0.0 3.2 0.00 0.15 0.00 91 1017.6
20260502012035 7 0 0.0 3.2 0.00 0.15 0.00 91 1017.7
20260502011546 7 0 0.0 3.2 0.00 0.15 0.00 91 1017.8
20260502011033 7 135 1.6 3.2 0.00 0.15 0.00 91 1017.9
20260502010535 7 46 0.0 3.2 0.00 0.15 0.00 91 1017.8
20260502010049 7 108 1.6 4.8 0.00 0.15 0.00 91 1017.8
20260502005535 7 0 0.0 4.8 0.00 0.15 0.00 91 1018.0
20260502005038 7 130 1.6 4.8 0.00 0.15 0.00 91 1017.9
20260502004541 7 98 0.0 3.2 0.00 0.15 0.00 91 1018.0
20260502004039 7 79 1.6 3.2 0.00 0.15 0.00 90 1018.0
20260502003533 8 72 0.0 3.2 0.00 0.15 0.00 90 1018.0
20260502003045 8 223 1.6 3.2 0.00 0.15 0.00 90 1018.1
20260502002533 8 117 0.0 1.6 0.00 0.15 0.00 90 1018.1
20260502002033 8 241 0.0 3.2 0.00 0.15 0.00 90 1018.2
20260502001552 8 241 0.0 3.2 0.00 0.15 0.00 90 1018.2
20260502001035 8 213 0.0 1.6 0.00 0.15 0.00 90 1018.2
20260502000535 8 296 0.0 1.6 0.00 0.15 0.00 91 1018.1
20260502000056 8 0 0.0 4.8 0.00 0.15 0.00 91 1018.2
20260501235535 8 117 0.0 4.8 0.00 0.15 0.00 90 1018.3
20260501235033 8 60 0.0 3.2 0.00 0.15 0.00 90 1018.3
20260501234558 8 269 0.0 3.2 0.00 0.15 0.00 90 1018.3
20260501234034 8 241 0.0 3.2 0.00 0.15 0.00 90 1018.2